DHK812 EDDP-EDDH

Flight info

Callsign DHK812
Flight time 0h 37m
Altitude 26000
Route PENEM1N PENEM Y233 ODLUN Z207 MAG M736 UBIGI/N0387F280 M736 SOGMA M748 ERNUD M726 BKD L619 BUMIL/N0366F240 M748 RARUP RARUP6A
Aircraft B752/M-SDE2E3FGHIJ3J4J7RWXY/LB1

Departure

Time 2026-05-06 10:26
Airport Leipzig/Halle Airport (EDDP)

Arrival

Time 2026-05-06 11:03
Airport Hamburg Helmut Schmidt Airport (EDDH)
Time Latitude Longitude Altitude Speed Heading
2026-05-06 09:45 51.40855 12.23879 459 ft 0 kts 85°
2026-05-06 10:14 51.40855 12.23856 459 ft 2 kts 85°
2026-05-06 10:15 51.40854 12.23832 460 ft 2 kts 86°
2026-05-06 10:15 51.40853 12.23813 460 ft 0 kts 85°
2026-05-06 10:15 51.40850 12.23793 460 ft 2 kts 59°
2026-05-06 10:15 51.40840 12.23776 460 ft 2 kts 29°
2026-05-06 10:16 51.40826 12.23770 460 ft 1 kts 359°
2026-05-06 10:16 51.40821 12.23771 460 ft 1 kts 353°
2026-05-06 10:16 51.40819 12.23771 460 ft 0 kts 354°
2026-05-06 10:19 51.40821 12.23770 460 ft 2 kts 354°
2026-05-06 10:19 51.40874 12.23764 461 ft 12 kts 356°
2026-05-06 10:20 51.40966 12.23753 461 ft 9 kts 355°
2026-05-06 10:20 51.41005 12.23749 461 ft 6 kts 355°
2026-05-06 10:20 51.41045 12.23768 461 ft 6 kts 47°
2026-05-06 10:20 51.41059 12.23845 460 ft 8 kts 83°
2026-05-06 10:21 51.41065 12.23946 459 ft 9 kts 87°
2026-05-06 10:21 51.41069 12.24057 457 ft 11 kts 85°
2026-05-06 10:21 51.41076 12.24195 456 ft 13 kts 85°
2026-05-06 10:21 51.41082 12.24349 454 ft 14 kts 85°
2026-05-06 10:22 51.41091 12.24517 453 ft 15 kts 85°
2026-05-06 10:22 51.41099 12.24693 453 ft 15 kts 86°
2026-05-06 10:22 51.41106 12.24870 453 ft 15 kts 85°
2026-05-06 10:22 51.41116 12.25044 454 ft 15 kts 85°
2026-05-06 10:23 51.41123 12.25211 456 ft 14 kts 85°
2026-05-06 10:23 51.41130 12.25361 459 ft 12 kts 85°
2026-05-06 10:23 51.41137 12.25494 460 ft 11 kts 85°
2026-05-06 10:23 51.41156 12.25600 462 ft 8 kts 42°
2026-05-06 10:24 51.41208 12.25623 462 ft 7 kts
2026-05-06 10:24 51.41258 12.25619 463 ft 7 kts 355°
2026-05-06 10:24 51.41307 12.25610 464 ft 6 kts 346°
2026-05-06 10:24 51.41351 12.25577 464 ft 7 kts 324°
2026-05-06 10:25 51.41385 12.25513 463 ft 7 kts 294°
2026-05-06 10:25 51.41393 12.25439 462 ft 0 kts 266°
2026-05-06 10:25 51.41386 12.25278 460 ft 41 kts 266°
2026-05-06 10:25 51.41348 12.24437 456 ft 110 kts 266°
2026-05-06 10:26 51.41272 12.22896 570 ft 160 kts 267°
2026-05-06 10:26 51.41158 12.21051 1235 ft 173 kts 265°
2026-05-06 10:26 51.41025 12.19161 2024 ft 175 kts 265°
2026-05-06 10:26 51.40894 12.17140 2433 ft 192 kts 264°
2026-05-06 10:27 51.40739 12.14915 2817 ft 213 kts 264°
2026-05-06 10:27 51.40597 12.12468 3327 ft 230 kts 271°
2026-05-06 10:27 51.41020 12.09919 3864 ft 248 kts 302°
2026-05-06 10:27 51.42279 12.08020 4542 ft 261 kts 332°
2026-05-06 10:28 51.44070 12.07337 5328 ft 273 kts 357°
2026-05-06 10:28 51.45970 12.07465 6201 ft 278 kts
2026-05-06 10:28 51.47921 12.07652 6803 ft 292 kts
2026-05-06 10:28 51.49924 12.07847 7916 ft 286 kts
2026-05-06 10:29 51.51937 12.08057 8710 ft 294 kts
2026-05-06 10:29 51.53988 12.08281 9596 ft 297 kts
2026-05-06 10:29 51.56071 12.08514 10291 ft 308 kts
2026-05-06 10:29 51.58274 12.08751 10684 ft 328 kts
2026-05-06 10:30 51.60586 12.09002 11150 ft 345 kts
2026-05-06 10:30 51.63001 12.09276 12012 ft 348 kts 357°
2026-05-06 10:30 51.65438 12.09136 12805 ft 352 kts 354°
2026-05-06 10:30 51.67867 12.08940 13574 ft 355 kts 349°
2026-05-06 10:31 51.70253 12.07919 14305 ft 353 kts 332°
2026-05-06 10:31 51.72293 12.05870 15009 ft 351 kts 315°
2026-05-06 10:31 51.74027 12.03085 15731 ft 353 kts 310°
2026-05-06 10:31 51.75745 12.00172 16422 ft 357 kts 309°
2026-05-06 10:32 51.77427 11.97269 17025 ft 361 kts 309°
2026-05-06 10:32 51.79139 11.94277 17686 ft 365 kts 309°
2026-05-06 10:32 51.80876 11.91220 18375 ft 369 kts 309°
2026-05-06 10:32 51.82592 11.88189 18987 ft 373 kts 309°
2026-05-06 10:33 51.84541 11.85374 19607 ft 383 kts 323°
2026-05-06 10:33 51.86950 11.83431 20246 ft 392 kts 339°
2026-05-06 10:33 51.89626 11.82505 20848 ft 399 kts 350°
2026-05-06 10:33 51.92387 11.81766 21430 ft 402 kts 346°
2026-05-06 10:34 51.95158 11.80789 22024 ft 406 kts 345°
2026-05-06 10:34 51.97903 11.79727 22615 ft 409 kts 344°
2026-05-06 10:34 52.00683 11.78586 23206 ft 412 kts 343°
2026-05-06 10:34 52.03455 11.77414 23772 ft 416 kts 343°
2026-05-06 10:35 52.06253 11.76209 24292 ft 419 kts 343°
2026-05-06 10:35 52.09051 11.74993 24857 ft 421 kts 343°
2026-05-06 10:35 52.11900 11.73746 25312 ft 425 kts 343°
2026-05-06 10:35 52.14774 11.72484 25773 ft 430 kts 343°
2026-05-06 10:36 52.17707 11.71191 25779 ft 436 kts 343°
2026-05-06 10:36 52.20599 11.69916 25772 ft 428 kts 343°
2026-05-06 10:36 52.23461 11.68651 25769 ft 424 kts 343°
2026-05-06 10:36 52.26282 11.67401 25771 ft 426 kts 343°
2026-05-06 10:37 52.29183 11.66113 25774 ft 428 kts 343°
2026-05-06 10:37 52.32042 11.64843 25773 ft 426 kts 343°
2026-05-06 10:37 52.34903 11.63571 25771 ft 426 kts 343°
2026-05-06 10:37 52.37534 11.62398 25772 ft 426 kts 343°
2026-05-06 10:38 52.40377 11.61131 25767 ft 426 kts 343°
2026-05-06 10:38 52.43253 11.59846 25776 ft 425 kts 343°
2026-05-06 10:38 52.46103 11.58572 25776 ft 425 kts 343°
2026-05-06 10:38 52.48954 11.57295 25771 ft 424 kts 344°
2026-05-06 10:39 52.51798 11.56019 25781 ft 423 kts 344°
2026-05-06 10:39 52.54637 11.54744 25782 ft 424 kts 344°
2026-05-06 10:39 52.57487 11.53463 25782 ft 423 kts 344°
2026-05-06 10:39 52.60325 11.52186 25790 ft 422 kts 344°
2026-05-06 10:40 52.63123 11.50925 25785 ft 423 kts 344°
2026-05-06 10:40 52.65971 11.49640 25788 ft 424 kts 344°
2026-05-06 10:40 52.68798 11.48362 25787 ft 423 kts 344°
2026-05-06 10:40 52.71650 11.47070 25781 ft 423 kts 345°
2026-05-06 10:41 52.74478 11.45789 25799 ft 422 kts 344°
2026-05-06 10:41 52.77319 11.44500 25795 ft 423 kts 344°
2026-05-06 10:41 52.80150 11.43214 25800 ft 422 kts 344°
2026-05-06 10:41 52.82935 11.41946 25692 ft 411 kts 344°
2026-05-06 10:42 52.85704 11.40685 25096 ft 409 kts 344°
2026-05-06 10:42 52.88390 11.39460 24563 ft 405 kts 344°
2026-05-06 10:42 52.91107 11.38218 24054 ft 401 kts 343°
2026-05-06 10:42 52.93771 11.37001 23577 ft 396 kts 343°
2026-05-06 10:43 52.96425 11.35784 23144 ft 391 kts 343°
2026-05-06 10:43 52.99021 11.34594 22749 ft 384 kts 342°
2026-05-06 10:43 53.01559 11.33428 22346 ft 378 kts 343°
2026-05-06 10:44 53.06568 11.31123 21554 ft 373 kts 342°
2026-05-06 10:44 53.09064 11.29970 21163 ft 375 kts 342°
2026-05-06 10:44 53.11523 11.28646 20814 ft 371 kts 332°
2026-05-06 10:44 53.13734 11.26475 20559 ft 367 kts 323°
2026-05-06 10:45 53.15590 11.24378 20172 ft 371 kts 323°
2026-05-06 10:45 53.17740 11.21943 19726 ft 368 kts 323°
2026-05-06 10:45 53.19840 11.19540 19298 ft 362 kts 322°
2026-05-06 10:45 53.21883 11.17192 18873 ft 357 kts 323°
2026-05-06 10:46 53.23929 11.14831 18489 ft 354 kts 322°
2026-05-06 10:46 53.25835 11.12607 18117 ft 353 kts 319°
2026-05-06 10:46 53.27567 11.09735 17749 ft 347 kts 302°
2026-05-06 10:46 53.28557 11.06770 17447 ft 342 kts 288°
2026-05-06 10:47 53.29106 11.03010 17130 ft 338 kts 275°
2026-05-06 10:47 53.29375 10.99151 16820 ft 337 kts 273°
2026-05-06 10:47 53.29638 10.95300 16578 ft 334 kts 275°
2026-05-06 10:47 53.29896 10.91433 16351 ft 338 kts 274°
2026-05-06 10:48 53.30157 10.87475 16004 ft 340 kts 275°
2026-05-06 10:48 53.30410 10.83593 15680 ft 336 kts 275°
2026-05-06 10:48 53.30660 10.79735 15373 ft 333 kts 275°
2026-05-06 10:48 53.30911 10.75865 15074 ft 336 kts 275°
2026-05-06 10:49 53.31155 10.72007 14791 ft 336 kts 274°
2026-05-06 10:49 53.31403 10.68136 14479 ft 335 kts 274°
2026-05-06 10:49 53.31634 10.64333 14183 ft 334 kts 275°
2026-05-06 10:49 53.31867 10.60467 13893 ft 334 kts 274°
2026-05-06 10:50 53.32095 10.56625 13589 ft 333 kts 275°
2026-05-06 10:50 53.32314 10.52773 13280 ft 334 kts 275°
2026-05-06 10:50 53.32528 10.48904 12879 ft 333 kts 275°
2026-05-06 10:50 53.32727 10.45089 12466 ft 331 kts 276°
2026-05-06 10:51 53.32928 10.41241 12032 ft 329 kts 275°
2026-05-06 10:51 53.33112 10.37485 11596 ft 327 kts 275°
2026-05-06 10:51 53.33293 10.33694 11128 ft 325 kts 274°
2026-05-06 10:51 53.33460 10.29997 10516 ft 329 kts 274°
2026-05-06 10:52 53.33622 10.26108 9799 ft 334 kts 274°
2026-05-06 10:52 53.33775 10.22367 9078 ft 335 kts 274°
2026-05-06 10:52 53.33927 10.18576 8309 ft 321 kts 274°
2026-05-06 10:52 53.34064 10.15112 7645 ft 310 kts 274°
2026-05-06 10:53 53.34203 10.11553 6895 ft 301 kts 274°
2026-05-06 10:53 53.34334 10.08107 6190 ft 294 kts 275°
2026-05-06 10:53 53.34458 10.04717 5479 ft 289 kts 273°
2026-05-06 10:53 53.34568 10.01430 4761 ft 286 kts 274°
2026-05-06 10:54 53.34666 9.98133 4038 ft 283 kts 274°
2026-05-06 10:54 53.34747 9.94861 3312 ft 282 kts 275°
2026-05-06 10:54 53.34806 9.91658 2967 ft 265 kts 274°
2026-05-06 10:54 53.34845 9.88718 3010 ft 242 kts 274°
2026-05-06 10:55 53.34885 9.85889 3005 ft 248 kts 278°
2026-05-06 10:55 53.35376 9.83178 3025 ft 242 kts 310°
2026-05-06 10:55 53.36573 9.81273 3028 ft 233 kts 333°
2026-05-06 10:55 53.37933 9.79838 2981 ft 232 kts 335°
2026-05-06 10:56 53.39304 9.78402 2990 ft 228 kts 334°
2026-05-06 10:56 53.40640 9.76998 2998 ft 228 kts 334°
2026-05-06 10:56 53.41998 9.75572 3002 ft 229 kts 334°
2026-05-06 10:56 53.43364 9.74139 3007 ft 234 kts 334°
2026-05-06 10:57 53.44761 9.72778 2993 ft 225 kts 346°
2026-05-06 10:57 53.46238 9.72502 3029 ft 212 kts 12°
2026-05-06 10:57 53.47639 9.73210 3023 ft 210 kts 31°
2026-05-06 10:57 53.48922 9.74353 3003 ft 210 kts 30°
2026-05-06 10:58 53.50256 9.75422 3001 ft 210 kts 28°
2026-05-06 10:58 53.51553 9.76396 2988 ft 199 kts 32°
2026-05-06 10:58 53.52522 9.77828 2964 ft 173 kts 52°
2026-05-06 10:58 53.53278 9.79327 2753 ft 164 kts 50°
2026-05-06 10:59 53.54011 9.80746 2541 ft 156 kts 51°
2026-05-06 10:59 53.54691 9.82085 2351 ft 147 kts 50°
2026-05-06 10:59 53.55353 9.83397 2172 ft 150 kts 51°
2026-05-06 10:59 53.56043 9.84770 1952 ft 152 kts 50°
2026-05-06 11:00 53.56707 9.86097 1693 ft 142 kts 51°
2026-05-06 11:00 53.57480 9.87645 1450 ft 117 kts 49°
2026-05-06 11:00 53.57814 9.88312 1356 ft 105 kts 49°
2026-05-06 11:00 53.58276 9.89234 1208 ft 106 kts 49°
2026-05-06 11:01 53.58774 9.90225 1080 ft 112 kts 49°
2026-05-06 11:01 53.59267 9.91219 923 ft 112 kts 50°
2026-05-06 11:01 53.59764 9.92232 758 ft 113 kts 49°
2026-05-06 11:01 53.60281 9.93247 613 ft 114 kts 50°
2026-05-06 11:02 53.60794 9.94277 440 ft 116 kts 50°
2026-05-06 11:02 53.61306 9.95331 276 ft 116 kts 47°
2026-05-06 11:02 53.61827 9.96376 126 ft 117 kts 49°
2026-05-06 11:02 53.62361 9.97445 51 ft 117 kts 52°
2026-05-06 11:03 53.62836 9.98416 45 ft 94 kts 51°
2026-05-06 11:03 53.63160 9.99075 46 ft 59 kts 50°
2026-05-06 11:03 53.63282 9.99341 47 ft 19 kts 68°
2026-05-06 11:03 53.63292 9.99508 47 ft 8 kts 99°
2026-05-06 11:04 53.63282 9.99611 48 ft 9 kts 98°
2026-05-06 11:04 53.63264 9.99710 48 ft 8 kts 128°
2026-05-06 11:04 53.63215 9.99767 48 ft 9 kts 153°
2026-05-06 11:04 53.63157 9.99819 48 ft 9 kts 152°
2026-05-06 11:05 53.63107 9.99862 48 ft 8 kts 153°
2026-05-06 11:05 53.63054 9.99908 48 ft 9 kts 153°
2026-05-06 11:05 53.62995 9.99959 48 ft 9 kts 153°
2026-05-06 11:05 53.62959 9.99990 48 ft 3 kts 153°
2026-05-06 11:06 53.62928 10.00017 48 ft 6 kts 154°
2026-05-06 11:06 53.62893 10.00038 48 ft 2 kts 169°
2026-05-06 11:06 53.62871 10.00035 48 ft 4 kts 198°
2026-05-06 11:06 53.62838 10.00001 48 ft 6 kts 211°
2026-05-06 11:07 53.62797 9.99961 48 ft 7 kts 212°
2026-05-06 11:07 53.62750 9.99913 48 ft 8 kts 211°
2026-05-06 11:07 53.62695 9.99860 48 ft 9 kts 209°
2026-05-06 11:07 53.62646 9.99788 48 ft 9 kts 244°
2026-05-06 11:08 53.62628 9.99669 47 ft 11 kts 258°
2026-05-06 11:08 53.62613 9.99535 47 ft 11 kts 259°
2026-05-06 11:08 53.62597 9.99392 47 ft 12 kts 259°
2026-05-06 11:08 53.62580 9.99241 47 ft 7 kts 262°
2026-05-06 11:09 53.62589 9.99152 46 ft 8 kts 306°
2026-05-06 11:09 53.62637 9.99097 46 ft 8 kts 333°
2026-05-06 11:09 53.62691 9.99051 46 ft 8 kts 333°
2026-05-06 11:09 53.62750 9.99001 46 ft 9 kts 332°
2026-05-06 11:10 53.62779 9.98982 46 ft 4 kts 358°
2026-05-06 11:10 53.62807 9.99013 46 ft 6 kts 52°
2026-05-06 11:10 53.62829 9.99081 46 ft 6 kts 64°
2026-05-06 11:10 53.62836 9.99106 46 ft 0 kts 63°